Location: Sungai Dangang
(2.7500°N, 113.8333°E)
Time: 05:47:17
(UTC+00:00)

ISS - Pass Details

Date: 16 May 2021
Orbit: 417 x 422 km, 51.6° (Epoch: 16 June)

Event Time Altitude Azimuth Distance (km) Brightness Sun altitude
Rises 21:16:40 0° 337° (NNW) 2,354 0.0 -14.2°
Reaches altitude 10° 21:18:53 10° 347° (NNW) 1,493 -0.9 -13.7°
Maximum altitude 21:21:58 34° 54° (NE) 705 -1.9 -13.0°
Drops below altitude 10° 21:25:04 10° 121° (ESE) 1,498 -0.4 -12.3°
Sets 21:27:17 0° 131° (SE) 2,363 0.5 -11.7°
